Погода в Безенчуке

Россия / Самарская область     52°59′03″N   49°25′59″E
темп.,
°C
ветер,
м/с
пор.,
м/с
влажн.,
%
обл.,
%
осадки,
мм/ч
давл.,
гПа
погр.,
м
23 апреля, пт
пт2301:00+5юв379361 0.0 1026205
04:00+4юв349399 0.0 102687
07:00+5вюв3589100 0.0 1026193
10:00+10всв4468100 0.0 1025524
13:00+13всв4556100 0.0 1023882
16:00+14в4554100 0.0 10221428
19:00+13всв2360100 0.0 102053
22:00+9ююв4882100 0.0 1020385
24 апреля, сб
сб2401:00+8вюв1288100 0.0 101852
04:00+8всв2492100 1.0 1016323
07:00+8всв2488100 0.1 1015367
10:00+8св1179100 0.1 1014500
13:00+12ююз236777 0.1 10131016
16:00+13зюз455596 0.1 10111566
19:00+12ю4870100 0.0 1010315
22:00+10ююв6118299 0.5 1009328
25 апреля, вс
вс2501:00+9ююз61283100 0.4 1008650
04:00+7з7117487 0.9 1009970
07:00+7зюз6107437 0.1 1010974
10:00+8зюз913515 0.4 10111893
13:00+8зюз11145487 0.3 10132005
16:00+9зюз10135896 0.3 10151716
19:00+7з59715 0.2 1017936
22:00+5юз511745 0.2 1018280
26 апреля, пн
пн2601:00+4юз4107810 0.0 1019205
04:00+3юз3575100 0.0 102080
07:00+5ююз2571100 0.0 1020146
10:00+10ююз5647100 0.0 10191287
13:00+12ю4540100 0.0 10171868
16:00+13ю3539100 0.0 10162057
19:00+11юв2252100 0.0 101438
22:00+9ююв2359100 0.0 101234
27 апреля, вт
вт2701:00+8ююз2374100 0.0 101152
04:00+7ююз228048 0.0 101015
07:00+7ююз238083 0.0 1010108
10:00+11юз246247 0.1 1009557
13:00+14зюз6741100 0.1 10082186
16:00+13з895391 0.1 10091907
19:00+10зсз475265 0.1 1010330
22:00+8зюз2257100 0.1 101125